Location: ?????? ??????
(44.3742°N, 135.2221°E)
Time: 03:26:47
(UTC+00:00)

H-2A R/B - Pass Details

Date: 19 May 2025
Orbit: 555 x 622 km, 98.4° (Epoch: 15 June)

Event Time Altitude Azimuth Distance (km) Brightness Sun altitude
Rises 16:59:57 0° 12° (NNE) 2,819 6.8 -19.7°
Reaches altitude 10° 17:02:09 10° 11° (N) 1,903 5.6 -19.5°
Maximum altitude 17:06:15 78° 285° (WNW) 589 1.8 -19.1°
Enters shadow 17:07:19 48° 210° (SSW) 749 2.0 -19.0°
